Weather reports worldwide

Advertisment
Antalya Bolge, Turkey (17302): temperature & dewpoint: 19.04.2019 15:00:00 - 25.04.2019 15:00:00 (EEST)Antalya Bolge, Turkey (17302): wind speed: 19.04.2019 15:00:00 - 25.04.2019 15:00:00 (EEST)Antalya Bolge, Turkey (17302): wind direction: 19.04.2019 15:00:00 - 25.04.2019 15:00:00 (EEST)Antalya Bolge, Turkey (17302): reduced air pressure: 19.04.2019 15:00:00 - 25.04.2019 15:00:00 (EEST)Antalya Bolge, Turkey (17302): visibility: 19.04.2019 15:00:00 - 25.04.2019 15:00:00 (EEST)
Date & Time tt [°C] td [°C] ff [km/h] ff [kn] dd ppp [hPa] vv [km]
25.04.2019 15:00:00 20,5 14,0 15 8 ESE 1021,1 15
25.04.2019 14:00:00 21,3 13,0 8 4 SE 1021,3 15
25.04.2019 13:00:00 20,2 13,0 8 4 SE 1021,6 15
25.04.2019 12:00:00 20,1 12,6 4 2 SSW 1022,4 15
25.04.2019 11:00:00 19,0 15,6 5 3 S 1022,9 15
25.04.2019 10:00:00 18,6 14,5 4 2 SW 1022,8 15
25.04.2019 09:00:00 17,5 11,6 2 1 SSW 1022,7 15
25.04.2019 08:00:00 17,7 10,4 4 2 SE 1022,7 20
25.04.2019 07:00:00 16,7 9,4 5 3 NNW 1022,5 20
25.04.2019 06:00:00 16,1 9,8 2 1 NNW 1022,3 20
25.04.2019 05:00:00 15,9 11,1 2 1 NNW 1022,6 20
25.04.2019 04:00:00 15,8 12,5 0 0 N 1022,8 20
25.04.2019 03:00:00 15,8 12,5 0 0 N 1022,8 20
25.04.2019 02:00:00 16,6 12,4 2 1 S 1023,4 20
25.04.2019 01:00:00 16,4 11,6 2 1 N 1024,1 20
25.04.2019 00:00:00 15,9 12,6 2 1 N 1024,4 20
24.04.2019 23:00:00 16,2 13,6 2 1 NNW 1024,9 20
24.04.2019 22:00:00 16,5 13,4 0 0 N 1025,2 20
24.04.2019 21:00:00 17,0 12,7 0 0 N 1025,1 15
24.04.2019 20:00:00 17,5 12,0 2 1 SSE 1025,1 20
24.04.2019 19:00:00 18,1 11,7 4 2 SSE 1025,0 20
24.04.2019 18:00:00 18,4 11,3 4 2 SSE 1025,1 20
24.04.2019 17:00:00 19,1 10,9 8 4 SSE 1025,4 20
24.04.2019 16:00:00 18,7 12,3 8 4 SSE 1026,0 20
24.04.2019 15:00:00 19,3 12,4 9 5 SSE 1026,2 20
24.04.2019 14:00:00 19,4 11,5 9 5 SSE 1027,0 20
24.04.2019 13:00:00 18,8 10,9 9 5 SE 1027,2 20
24.04.2019 12:00:00 18,8 10,9 8 4 SSE 1027,2 20
24.04.2019 11:00:00 18,2 9,3 5 3 S 1027,0 20
24.04.2019 10:00:00 17,7 9,1 4 2 S 1026,7 20
24.04.2019 09:00:00 16,7 8,1 2 1 SE 1025,8 20
24.04.2019 08:00:00 15,3 9,2 0 0 N 1025,1 20
24.04.2019 07:00:00 15,1 6,1 2 1 ESE 1024,7 20
24.04.2019 06:00:00 14,9 5,7 4 2 N 1025,0 20
24.04.2019 05:00:00 14,4 5,7 4 2 N 1025,4 20
24.04.2019 04:00:00 14,7 5,2 2 1 N 1025,5 20
24.04.2019 03:00:00 15,2 4,8 2 1 N 1025,5 20
24.04.2019 02:00:00 15,1 5,0 5 3 N 1025,9 20
24.04.2019 01:00:00 14,9 6,5 4 2 N 1025,8 20
24.04.2019 00:00:00 14,9 7,2 4 2 N 1026,2 20
23.04.2019 23:00:00 15,9 7,7 2 1 N 1026,1 20
23.04.2019 22:00:00 16,7 7,1 2 1 N 1026,0 20
23.04.2019 21:00:00 17,0 7,3 2 1 N 1025,4 20
23.04.2019 20:00:00 17,7 6,5 2 1 E 1024,4 20
23.04.2019 19:00:00 18,6 6,3 4 2 E 1023,9 20
23.04.2019 18:00:00 18,4 7,4 11 6 ESE 1023,5 20
23.04.2019 17:00:00 18,8 8,4 13 7 SE 1023,0 20
23.04.2019 16:00:00 19,2 7,6 9 5 S 1022,6 20
23.04.2019 15:00:00 18,9 7,3 9 5 SSE 1022,8 20
23.04.2019 14:00:00 18,8 2,0 9 5 SSE 1023,1 20
23.04.2019 13:00:00 18,7 3,6 11 6 SE 1023,2 20
23.04.2019 12:00:00 18,5 3,8 9 5 SSE 1023,4 20
23.04.2019 11:00:00 17,9 4,7 5 3 S 1023,2 20
23.04.2019 10:00:00 17,2 5,4 8 4 SSE 1023,0 20
23.04.2019 09:00:00 17,3 -3,5 4 2 N 1022,2 20
23.04.2019 08:00:00 15,0 -3,0 5 3 N 1021,9 20
23.04.2019 07:00:00 14,3 -4,5 5 3 NNW 1021,3 20
23.04.2019 06:00:00 14,1 -4,7 8 4 NNW 1020,9 20
23.04.2019 05:00:00 14,2 -4,1 5 3 N 1020,3 20
23.04.2019 04:00:00 14,1 -4,2 8 4 N 1020,1 20
23.04.2019 03:00:00 14,6 -4,3 4 2 N 1019,9 20
23.04.2019 02:00:00 14,7 -4,2 2 1 NNW 1019,6 20
23.04.2019 01:00:00 14,4 -3,0 4 2 NNW 1019,2 20
23.04.2019 00:00:00 14,4 -0,9 4 2 N 1019,4 20
22.04.2019 23:00:00 15,2 0,8 2 1 W 1018,4 20
22.04.2019 22:00:00 16,0 -2,1 2 1 N 1018,1 20
22.04.2019 21:00:00 16,4 2,6 2 1 NNE 1017,9 20
22.04.2019 20:00:00 16,2 9,2 2 1 NNW 1017,4 20
22.04.2019 19:00:00 17,7 10,1 5 3 SE 1016,5 20
22.04.2019 18:00:00 17,6 8,7 9 5 SSE 1015,9 20
22.04.2019 17:00:00 17,8 6,3 9 5 SSE 1015,6 20
22.04.2019 16:00:00 18,1 1,4 13 7 SE 1015,3 20
22.04.2019 15:00:00 23,9 -9,7 5 3 NNW 1015,2 20
22.04.2019 14:00:00 22,8 -9,3 8 4 NNW 1015,1 20
22.04.2019 13:00:00 21,6 -11,5 9 5 NNW 1015,0 20
22.04.2019 12:00:00 20,6 -13,5 13 7 N 1015,4 20
22.04.2019 11:00:00 19,0 -12,2 9 5 N 1015,8 20
22.04.2019 10:00:00 16,5 -13,1 13 7 N 1015,5 20
22.04.2019 09:00:00 14,2 -8,5 8 4 N 1015,7 20
22.04.2019 08:00:00 12,5 -6,5 8 4 N 1015,6 20
22.04.2019 07:00:00 11,9 -6,1 8 4 N 1015,3 20
22.04.2019 06:00:00 12,0 -6,0 11 6 N 1014,9 20
22.04.2019 05:00:00 12,5 -5,6 11 6 N 1014,8 20
22.04.2019 04:00:00 12,7 -5,4 8 4 N 1015,1 20
22.04.2019 03:00:00 12,8 -4,9 8 4 N 1015,4 20
22.04.2019 02:00:00 13,0 -4,7 8 4 N 1015,8 20
22.04.2019 01:00:00 13,7 -4,6 9 5 NNW 1016,3 20
22.04.2019 00:00:00 13,7 -4,1 8 4 N 1016,7 20
21.04.2019 23:00:00 - - - - - - -
21.04.2019 22:00:00 14,6 -3,8 13 7 N 1016,7 20
21.04.2019 21:00:00 15,4 -4,6 11 6 N 1016,7 20
21.04.2019 20:00:00 16,2 -3,9 11 6 N 1015,8 20
21.04.2019 19:00:00 17,5 -4,5 11 6 N 1015,4 20
21.04.2019 18:00:00 19,1 -5,8 11 6 N 1015,3 20
21.04.2019 17:00:00 20,0 -5,8 13 7 N 1015,0 20
21.04.2019 16:00:00 19,9 -5,9 15 8 N 1015,0 20
21.04.2019 15:00:00 19,9 -4,4 11 6 NNW 1015,6 20
21.04.2019 14:00:00 19,1 -5,1 15 8 NNW 1016,0 20
21.04.2019 13:00:00 18,7 -4,7 15 8 NNW 1016,2 20
21.04.2019 12:00:00 17,3 -4,6 15 8 N 1016,5 20
21.04.2019 11:00:00 15,9 -5,2 15 8 N 1016,8 20
21.04.2019 10:00:00 14,5 -4,8 15 8 NNW 1016,9 20
21.04.2019 09:00:00 12,5 -5,6 15 8 NNW 1016,8 20
21.04.2019 08:00:00 11,0 -5,6 13 7 NNW 1016,8 20
21.04.2019 07:00:00 10,2 -6,3 9 5 NNW 1016,6 20
21.04.2019 06:00:00 10,0 -6,4 8 4 N 1016,5 20
21.04.2019 05:00:00 10,1 -6,8 9 5 NNW 1016,4 20
21.04.2019 04:00:00 10,3 -6,2 9 5 NNW 1016,6 20
21.04.2019 03:00:00 10,6 -6,8 9 5 NNW 1016,4 20
21.04.2019 02:00:00 11,0 -6,4 9 5 NNW 1016,4 20
21.04.2019 01:00:00 11,6 -5,9 9 5 NNW 1016,9 20
21.04.2019 00:00:00 12,0 -5,1 9 5 NNW 1016,9 20
20.04.2019 23:00:00 12,5 -5,6 9 5 NNW 1016,6 20
20.04.2019 22:00:00 13,2 -5,5 9 5 NNW 1016,3 20
20.04.2019 21:00:00 13,9 -6,4 9 5 N 1015,5 20
20.04.2019 20:00:00 14,7 -8,0 11 6 N 1014,8 20
20.04.2019 19:00:00 15,9 -8,4 13 7 NNW 1014,2 20
20.04.2019 18:00:00 17,1 -8,1 13 7 NNW 1013,9 20
20.04.2019 17:00:00 18,4 -9,6 16 9 NNW 1013,5 20
20.04.2019 16:00:00 19,3 -9,9 13 7 N 1013,5 20
20.04.2019 15:00:00 19,5 -8,7 16 9 N 1013,4 20
20.04.2019 14:00:00 19,5 -10,7 15 8 N 1013,4 20
20.04.2019 13:00:00 19,2 -7,2 13 7 N 1013,8 20
20.04.2019 12:00:00 18,2 -7,2 13 7 NNW 1014,3 20
20.04.2019 11:00:00 16,9 -7,6 9 5 N 1015,0 20
20.04.2019 10:00:00 15,0 -9,9 11 6 NNW 1015,1 20
20.04.2019 09:00:00 13,1 -7,6 15 8 N 1014,7 20
20.04.2019 08:00:00 12,0 -7,0 16 9 NNW 1014,5 20
20.04.2019 07:00:00 10,9 -5,7 9 5 N 1014,6 20
20.04.2019 06:00:00 11,5 -4,7 13 7 N 1014,3 20
20.04.2019 05:00:00 12,1 -3,8 9 5 N 1014,3 20
20.04.2019 04:00:00 12,7 -3,7 11 6 N 1014,3 20
20.04.2019 03:00:00 13,3 -2,7 8 4 N 1014,8 20
20.04.2019 02:00:00 14,1 -2,4 8 4 N 1014,8 20
20.04.2019 01:00:00 14,2 -1,5 5 3 NNW 1015,4 20
20.04.2019 00:00:00 15,0 -1,6 8 4 NNW 1015,4 20
19.04.2019 23:00:00 15,6 -1,1 9 5 N 1015,5 20
19.04.2019 22:00:00 16,4 -0,4 8 4 NNW 1015,2 20
19.04.2019 21:00:00 17,7 -1,6 11 6 NNW 1014,4 20
19.04.2019 20:00:00 18,5 -0,9 5 3 N 1013,4 20
19.04.2019 19:00:00 17,9 9,3 2 1 S 1013,0 20
19.04.2019 18:00:00 17,9 9,0 5 3 SE 1012,5 20
19.04.2019 17:00:00 17,8 8,1 9 5 SSE 1012,4 20
19.04.2019 16:00:00 18,6 6,0 13 7 SSE 1012,4 20
19.04.2019 15:00:00 21,4 -4,6 5 3 N 1012,7 20

tt = temperature
td = dewpoint
ff = wind speed
dd = wind direction
ppp = reduced air pressure
vv = visibility

Next stations